Regional Weather Roundup
Issued by NWS Sioux Falls, SD

Home | Current Version | Previous Version | Text Only | Print | Product List | Glossary On
Versions: 1 2 3 4 5 6 7 8 9 10 11 12 13 14 15 16 17 18 19 20 21 22 23 24 25 26 27 28 29 30 31 32 33 34 35 36 37 38 39 40 41 42 43 44 45 46 47 48 49 50
346
ASUS43 KFSD 241610
RWRFSD

WEATHER ROUNDUP FOR SE SOUTH DAKOTA/SW MINNESOTA/NW IOWA
NATIONAL WEATHER SERVICE SIOUX FALLS SD
1000 AM CST FRI NOV 24 2017

NOTE: "FAIR" INDICATES FEW OR NO CLOUDS BELOW 12,000 FEET WITH NO
SIGNIFICANT WEATHER AND OR OBSTRUCTIONS TO VISIBILITY.


SDZ038>040-050-052>070-241700-
SOUTHEAST SOUTH DAKOTA

CITY           SKY/WX    TMP DP  RH WIND       PRES   REMARKS
BROOKINGS      CLOUDY    46  38  73 NW9       29.47R
CHAMBERLAIN    PTSUNNY   57  41  54 NW18G33   29.60R
HURON          CLOUDY    53  39  59 NW15      29.53R
MADISON        FAIR      54  39  58 NW16      29.46R
MITCHELL       MOSUNNY   54  40  59 NW17      29.52R
SIOUX FALLS    MOSUNNY   53  42  66 W3        29.44S
WINNER         FAIR      59  39  47 NW21G31   29.65R
YANKTON        SUNNY     57  40  52 W16       29.46R
$$

MNZ071-072-080-081-089-090-097-098-241700-
SOUTHWEST MINNESOTA

CITY           SKY/WX    TMP DP  RH WIND       PRES   REMARKS
FAIRMONT       SUNNY     51  40  65 SW9       29.39S
JACKSON        SUNNY     52  39  62 SW9       29.39F
LUVERNE        SUNNY     45  37  76 W5        29.43F
MARSHALL       MOSUNNY   57  39  51 NW16      29.40R
MONTEVIDEO     MOSUNNY   52  39  62 N12       29.39R
PIPESTONE      MOSUNNY   46  39  76 W8        29.42R
REDWOOD FALLS  PTSUNNY   57  38  48 NW15G24   29.37R
WINDOM         SUNNY     52  36  54 W13       29.40R
WORTHINGTON    MOSUNNY   52  40  63 SW15      29.41R
$$

IAZ001>003-012>014-020>022-031-032-NEZ013-014-SDZ071-241700-
NORTHWEST IOWA

CITY           SKY/WX    TMP DP  RH WIND       PRES   REMARKS
CHEROKEE       SUNNY     53  42  67 SW6       29.43F
DENISON        SUNNY     57  41  54 SW12G18   29.47F
ESTHERVILLE    SUNNY     51  41  68 SW15      29.39F
LE MARS        SUNNY     50  41  71 SW6       29.43F
ORANGE CITY    SUNNY     50  45  81 W9        29.43S
SHELDON        SUNNY     50  41  71 W12       29.41S
SIOUX CITY     SUNNY     51  41  68 CALM      29.45F
SPENCER        SUNNY     52  40  63 W10       29.42S
STORM LAKE     SUNNY     54  41  62 W16G22    29.43S
$$

ABBREVIATIONS USED IN REMARKS
   TC - TEMPERATURE IN CELSIUS
  WCI - WIND CHILL INDEX
   HX - HEAT INDEX
  VSB - VISIBILITY





USA.gov is the U.S. government's official web portal to all federal, state and local government web resources and services.